Location: Bletchingley
(51.2333°N, 0.1000°W)
Time: 12:47:47
(UTC+00:00)

Cosmos 2251 Rocket - Pass Details

Date: 18 September 2020
Orbit: 765 x 792 km, 74.0° (Epoch: 25 October)

Event Time Altitude Azimuth Distance (km) Brightness Sun altitude
Rises 21:46:44 0° 334° (NNW) 3,303 7.9 -30.8°
Reaches altitude 10° 21:49:09 10° 334° (NNW) 2,368 6.9 -31.0°
Enters shadow 21:53:17 54° 325° (NW) 959 4.2 -31.4°
